Find Starlink 5999

NORAD ID: 56909 Int'l Des: 2023-083 Owner: SPXS Country: US Constellation: starlink operational
LEOCIRCULAR

リアルタイム位置

3D地球を読み込み中...

Starlink 5999について

説明を読み込み中...

次回通過

Passes for default location (London). Set your location on the main map for personalized predictions.

高度履歴

Loading altitude history...

軌道要素

1 56909U 23083AK 26106.68033065 .00000871 00000-0 42130-4 0 9991
2 56909 43.0020 216.5269 0001077 276.5839 83.4890 15.26740689157717
Epoch: Apr 16, 2026 • Age: 18 hours

現在のステータス

高度 489.4 km
速度 7.63 km/s
衛星直下点 42.76°N, 43.93°W
打ち上げ日 Jun 12, 2023
運用期間 2.8 years
タイプ internet

技術仕様

分類 Payload
質量 305.00 kg
乾燥質量 290.00 kg
総質量 305.00 kg
長さ 0.20 m
直径 2.80 m
スパン 9.00 m
形状 Box + pan
製造者 SPXS
バスタイプ Starlink
フェーズステータス In Orbit
所有者/国 SPXS/US

Most Searched